Location: ??
(35.5138°N, 139.6953°E)
Time: 07:37:06
(UTC+00:00)

Cosmos 1437 Rocket - Pass Details

Date: 07 June 2020
Orbit: 507 x 561 km, 81.2° (Epoch: 05 July)

Event Time Altitude Azimuth Distance (km) Brightness Sun altitude
Rises 10:33:15 0° 183° (S) 2,597 5.9 -7.5°
Reaches altitude 10° 10:35:21 10° 182° (S) 1,719 5.0 -7.8°
Maximum altitude 10:39:07 75° 97° (E) 535 2.6 -8.4°
Drops below altitude 10° 10:42:57 10° 12° (NNE) 1,751 5.7 -9.1°
Sets 10:45:06 0° 11° (N) 2,651 6.7 -9.4°
